Theta_e
324 324 323 323 322 321 321 321 320 321 321 323 325 326 325 322 321 320 321 318 317 317
324 324 322 322 322 322 321 322 322 322 323 325 325 326 324 322 321 321 321 321 319 318
324 323 323 322 321 320 320 321 322 321 323 323 324 325 324 322 321 320 321 323 322 321
323 323 323 322 321 320 321 321 322 322 322 323 324 324 323 322 321 323 322 322 323 323
323 322 322 321 320 320 319 319 320 321 323 326 326 324 322 322 323 322 322 323 322 324
323 325 321 321 322 319 320 320 320 322 325 325 325 323 323 325 323 321 322 323 323 324
324 325 322 321 322 320 321 318 320 325 326 326 326 326 327 326 325 322 323 324 324 325
324 326 322 321 321 321 320 322 326 326 322 321 322 321 325 325 324 323 322 322 325 325
325 326 326 324 321 324 320 323 325 324 320 318 318 304 309 320 324 324 324 322 322 321
325 324 325 325 324 322 323 324 324 319 318 315 313 302 304 311 325 323 323 324 323 321
324 322 322 324 323 323 323 321 320 317 315 314 313 301 303 310 326 321 323 324 322 321
323 323 324 322 319 320 320 318 319 317 315 314 315 300 303 318 325 324 325 324 323 323
323 322 322 320 319 320 320 321 321 319 316 312 316 300 301 316 323 323 323 323 318 309
322 322 322 320 321 321 322 321 320 318 315 315 315 311 301 307 321 322 321 321 319 315
Wind_Speed
9 7 6 6 5 4 4 4 4 4 5 6 6 5 3 2 3 4 4 6 5 4
8 8 7 7 6 5 4 4 5 6 6 6 5 5 5 3 4 4 3 5 5 4
8 7 7 6 7 6 5 4 5 5 4 4 4 5 4 3 3 3 3 3 5 5
7 7 6 6 6 6 4 5 6 5 5 6 4 3 4 4 4 5 5 3 4 5
7 7 7 6 7 6 6 5 4 3 5 3 4 1 1 2 3 4 5 4 3 3
8 6 7 7 6 6 5 3 4 5 3 4 3 1 1 3 4 3 3 2 5 6
7 7 7 6 5 6 4 3 2 3 5 5 4 2 2 3 4 4 3 2 4 7
6 7 6 6 6 5 3 4 4 6 5 5 4 4 4 4 3 4 4 4 5 6
7 7 6 5 5 4 5 3 5 6 5 5 3 6 5 3 3 4 4 6 8 9
6 7 6 5 5 5 5 5 6 6 6 5 3 5 4 3 4 4 5 7 8 9
7 7 6 6 5 4 3 5 6 5 5 4 2 6 4 5 5 5 5 6 7 11
7 7 7 6 6 3 4 4 5 5 6 5 3 7 6 7 5 5 7 7 7 10
8 7 7 7 6 3 3 4 5 5 4 5 4 7 5 7 5 6 5 7 6 9
8 7 7 6 3 4 3 5 5 5 4 4 3 3 4 9 5 5 5 6 6 5
Wind_Direction
107 113 118 133 137 142 162 172 148 162 170 203 204 205 206 193 209 204 222 215 209 198
109 116 122 128 142 152 154 142 164 168 196 206 209 213 197 205 217 219 221 224 204 203
111 110 117 121 128 141 147 159 169 198 213 235 235 237 225 208 229 207 217 213 201 199
123 121 117 124 133 158 160 178 201 210 230 233 222 218 198 230 221 217 227 235 203 201
121 119 117 133 149 151 161 198 208 250 254 203 168 175 209 229 211 231 208 235 204 170
137 135 140 153 163 147 171 203 262 246 159 114 110 80 188 168 145 145 140 194 188 157
149 153 150 145 171 163 186 199 240 134 105 92 87 116 352 60 99 105 89 79 150 133
143 135 145 161 159 176 176 228 161 114 97 86 61 31 58 68 76 87 76 69 84 102
136 147 161 155 174 185 207 169 141 118 130 91 66 2 45 124 113 80 93 104 97 107
147 144 153 155 153 153 167 129 117 123 111 104 93 17 357 94 96 85 105 120 120 101
163 150 157 146 145 139 114 126 125 133 120 111 58 7 69 127 98 76 83 93 104 111
152 149 148 143 156 156 130 138 146 142 138 124 73 18 62 103 93 92 89 101 111 120
158 156 152 157 165 165 151 135 128 130 136 128 118 39 65 112 108 104 102 100 96 100
145 153 148 147 157 153 154 127 117 118 114 123 122 66 105 119 109 125 113 120 124 120